Temperature
21 18 18 18 19 19 20 19 19 19 20 20 19 18 18 19 19 19 19 19 18 18 19 18 18 18 18 18 18 18 18 18 17 17 17 17 17 16 16 16 16 16 16 16
18 18 19 20 20 20 20 19 19 20 21 20 18 18 18 18 19 19 19 18 18 18 18 18 18 18 18 18 18 17 17 17 17 17 17 17 16 16 16 16 16 16 16 16
18 19 20 21 20 20 19 19 19 19 20 20 19 18 18 18 19 19 19 19 19 18 18 18 18 18 18 18 17 17 17 17 17 17 17 16 16 16 16 16 16 16 16 16
18 19 20 20 20 19 19 20 20 20 18 17 18 16 17 17 17 17 18 18 18 18 18 18 18 18 18 17 17 17 17 17 17 17 17 16 16 16 16 16 16 16 16 16
18 19 19 19 20 20 19 20 19 19 18 17 17 16 16 16 16 16 17 18 18 18 18 18 18 18 18 17 17 17 17 17 17 16 16 16 16 16 16 16 16 16 15 15
19 20 20 19 20 20 20 19 18 16 16 16 17 16 15 15 16 17 17 17 17 18 18 18 17 17 17 17 17 16 16 16 16 16 16 16 16 16 16 15 15 15 15 15
18 19 20 20 19 19 18 16 16 16 15 15 16 16 15 16 17 17 16 17 17 17 17 17 17 17 17 16 16 16 16 16 16 16 16 15 15 15 15 15 15 15 15 15
17 17 19 19 19 18 17 16 15 16 15 15 16 16 16 17 17 17 17 17 17 17 17 16 16 16 16 16 16 16 16 15 15 15 15 15 15 15 15 15 15 15 15 15
16 16 18 19 19 18 18 16 16 15 16 15 15 16 16 17 16 16 16 16 16 16 16 16 16 16 16 16 15 15 15 15 15 15 15 14 15 14 14 14 14 14 14 14
16 16 18 19 19 19 18 17 14 15 15 15 15 15 15 15 15 15 15 15 15 15 15 16 16 15 15 15 15 15 15 15 14 14 14 14 14 14 14 14 14 13 14 14
16 15 17 17 18 17 18 17 15 14 14 14 15 15 16 15 15 14 15 15 15 15 15 15 15 15 15 15 14 14 14 14 14 14 14 14 14 13 13 13 13 13 13 13
15 14 14 16 17 18 17 17 15 15 14 14 13 14 16 15 15 15 15 15 15 15 15 15 14 14 14 14 14 14 14 14 14 14 13 13 13 13 13 13 13 13 13 13
15 13 14 15 15 16 17 17 16 14 13 13 13 14 15 14 14 14 14 14 14 14 14 14 14 14 14 14 14 14 14 13 13 13 13 13 13 13 12 12 12 12 12 12
15 13 13 14 14 15 16 16 16 14 13 13 13 14 14 14 13 13 14 14 13 13 13 13 13 13 13 13 13 13 13 13 13 13 13 13 12 12 12 12 12 12 11 11
14 13 14 14 15 15 15 16 15 15 14 13 14 14 14 13 13 13 13 13 13 12 12 13 13 12 12 12 12 12 12 12 12 12 12 12 12 12 11 11 11 11 11 11
12 13 14 14 15 15 15 15 15 14 14 14 14 13 13 13 13 13 12 12 12 12 12 12 12 12 12 12 12 12 12 12 12 11 11 11 11 11 11 11 10 10 10 10
12 12 13 12 13 14 13 14 14 14 14 13 13 12 12 12 12 12 12 12 11 11 11 11 11 11 11 11 11 11 11 11 11 11 11 11 11 10 10 10 10 10 10 10
12 12 11 12 13 13 13 13 14 13 13 13 13 12 12 12 12 12 12 12 11 11 11 11 11 11 11 11 11 11 11 10 10 10 10 10 10 10 10 10 10 9 9 9
12 12 11 11 11 12 13 13 13 13 12 12 12 12 12 12 11 11 11 11 11 11 11 10 10 10 10 10 10 10 10 10 10 10 10 9 9 9 9 9 9 9 9 9
11 11 10 10 11 11 12 13 14 13 12 12 12 11 11 11 9 9 11 11 11 10 10 10 10 10 10 10 10 10 9 9 9 9 9 9 9 9 9 8 8 8 8 8
11 10 10 10 10 11 11 13 13 12 11 12 11 11 11 10 10 11 10 10 10 10 10 9 9 9 9 9 9 9 9 9 9 8 8 8 8 8 8 8 8 8 8 8
10 10 9 9 10 10 12 12 11 11 12 12 11 11 11 11 11 10 10 10 9 9 9 9 9 9 9 9 8 8 8 8 8 8 8 8 8 8 7 7 7 7 7 7
10 10 9 9 10 11 12 12 12 12 12 12 11 11 11 10 10 10 9 9 9 9 8 8 8 8 8 8 8 8 8 7 7 7 7 7 7 7 7 7 7 7 6 6
9 10 9 9 9 11 11 12 12 12 12 11 11 11 10 10 9 9 9 8 8 8 8 8 8 7 7 7 7 7 7 7 7 7 7 6 6 6 6 6 6 6 6 6
9 9 8 9 9 10 11 11 11 11 11 11 10 10 10 9 9 9 8 8 8 7 7 7 7 7 7 7 7 6 6 6 6 6 6 5 5 5 5 5 5 5 5 5
8 9 8 9 10 9 10 11 11 11 10 10 10 10 9 9 9 8 8 8 7 7 7 7 6 6 6 6 6 6 6 5 5 5 5 5 5 5 5 4 4 4 4 4
Wind_Speed
3 4 1 4 5 5 4 3 2 4 3 3 4 4 4 4 4 5 5 5 6 6 5 5 5 5 4 4 4 3 3 3 3 2 2 2 1 1 1 2 3 3 4 5
4 1 6 4 2 2 2 2 2 2 2 3 3 3 3 4 6 7 8 7 7 5 3 4 5 5 4 4 3 3 3 3 3 2 2 2 2 1 1 1 2 3 3 4
4 5 3 2 1 1 2 4 4 3 1 0 1 3 3 3 1 2 4 6 6 7 7 6 5 5 5 4 4 4 4 4 3 3 3 3 2 2 2 1 1 1 2 3
1 4 1 1 2 2 3 4 4 2 1 3 2 3 6 3 1 1 2 3 5 6 6 6 6 5 5 5 4 4 4 4 3 4 4 4 3 1 1 1 1 0 2 2
2 1 0 1 3 3 5 4 2 2 2 2 2 3 5 2 2 4 3 3 4 5 6 7 6 6 5 4 4 3 3 3 3 4 5 4 2 1 0 1 1 0 0 1
2 2 2 3 3 2 2 2 4 3 3 3 5 4 4 3 5 4 3 3 3 4 5 4 4 4 3 3 3 3 3 2 2 3 4 4 3 2 2 1 1 0 1 1
4 4 2 0 1 3 4 5 3 3 2 5 2 4 5 5 4 5 5 4 4 4 5 4 4 3 2 2 3 3 4 2 2 2 3 3 3 4 3 3 2 1 0 0
1 5 4 1 3 2 2 6 5 4 4 4 1 4 4 2 1 3 4 4 5 5 5 5 4 4 3 2 3 3 4 3 2 2 2 2 2 2 2 2 2 2 2 2
3 5 4 2 1 5 3 3 6 5 1 2 2 1 3 3 3 3 4 5 5 4 4 4 4 3 3 3 3 3 4 3 2 2 2 2 1 2 2 1 1 2 2 2
4 3 4 3 2 1 4 5 5 3 2 3 3 3 3 2 2 2 3 4 4 4 4 4 3 3 2 2 2 3 3 3 2 2 2 2 1 1 1 1 1 1 1 1
3 2 3 2 2 3 1 2 3 3 4 4 3 5 3 5 4 3 3 3 4 4 4 3 2 2 2 3 3 3 2 3 2 1 1 1 1 1 1 1 1 1 1 1
2 3 2 5 6 3 4 4 5 3 3 3 3 5 2 3 3 4 3 2 3 3 3 3 3 3 3 2 2 2 2 1 1 2 2 2 1 1 1 1 1 1 1 1
3 4 2 5 5 4 0 2 3 4 3 4 4 5 2 2 3 2 3 2 2 3 3 3 3 2 2 2 1 1 1 0 0 2 2 2 2 1 1 1 1 1 1 1
4 3 5 5 5 3 3 4 1 3 3 4 6 5 2 1 1 1 2 2 3 3 3 3 2 1 1 1 1 1 0 1 1 2 2 2 1 1 1 1 1 1 2 2
4 2 3 4 4 3 4 4 3 4 5 6 6 6 5 4 4 3 3 3 3 3 3 3 2 1 1 1 0 0 0 1 1 2 2 1 1 1 2 2 2 2 2 2
3 2 1 3 2 2 4 5 4 4 3 4 3 4 4 3 2 2 3 3 3 2 2 2 1 1 0 0 0 0 0 1 1 2 1 1 2 2 2 2 2 2 2 2
2 3 1 3 4 3 4 5 5 4 3 4 6 6 2 2 3 4 4 4 4 3 2 1 1 0 1 1 1 1 0 1 2 1 1 1 2 2 1 1 2 2 1 2
5 3 3 2 1 4 5 3 2 2 2 2 3 3 3 3 3 2 3 5 4 3 2 1 1 1 1 1 1 1 2 2 2 2 2 1 2 2 1 2 1 1 1 1
5 5 3 2 2 5 4 3 1 1 3 1 1 1 1 3 3 2 1 2 4 4 3 2 1 1 1 2 1 2 2 2 2 1 1 1 1 1 1 1 0 0 0 0
4 4 4 3 3 5 5 4 2 2 2 2 1 2 2 3 2 3 1 1 2 2 3 2 1 2 2 2 1 3 3 2 1 1 1 1 1 2 1 0 0 0 0 0
2 2 3 3 4 5 5 5 2 2 5 3 1 2 3 3 4 3 2 2 2 2 2 2 2 2 1 1 2 3 2 1 1 1 2 2 2 1 1 1 1 1 1 1
4 3 3 4 4 6 3 1 3 5 2 2 1 1 2 2 2 3 3 2 2 2 1 2 2 1 1 1 3 3 1 0 1 2 2 2 2 1 2 2 2 2 2 2
4 6 5 6 6 4 2 3 2 3 2 1 1 1 3 2 2 3 3 2 2 2 1 2 2 1 1 2 2 2 0 1 2 3 2 2 2 2 2 2 2 2 2 1
3 1 2 2 4 3 2 1 0 2 2 2 3 3 4 3 2 3 3 2 2 1 1 2 3 2 1 2 2 1 1 2 3 2 2 2 2 2 3 2 1 1 1 1
4 2 1 3 4 2 2 1 1 1 2 2 2 3 4 3 3 3 3 2 2 1 1 2 2 2 1 2 2 2 1 2 3 2 2 2 2 2 2 2 2 1 1 0
4 5 5 6 6 4 4 4 2 2 2 3 3 2 2 3 3 3 3 2 2 2 1 1 1 1 1 1 2 2 2 2 3 2 2 1 1 1 2 2 3 5 4 4
Wind_Direction
32 74 186 230 208 193 185 195 229 232 219 160 191 211 217 203 163 166 176 174 170 176 177 150 138 128 115 104 108 115 114 108 112 109 114 112 106 82 60 78 94 110 116 113
42 284 230 216 220 199 173 182 249 263 227 179 197 246 241 208 192 183 182 181 181 173 150 143 141 137 135 140 134 123 132 130 131 147 156 153 152 173 170 89 63 87 109 121
170 244 241 213 238 192 232 189 212 224 298 309 139 316 297 279 228 179 182 181 181 174 168 163 154 156 148 150 160 156 156 149 146 133 105 84 65 41 37 29 32 45 98 111
223 276 254 169 226 182 248 233 211 200 165 253 190 247 280 257 261 209 198 185 185 181 169 166 163 162 170 177 171 161 160 154 149 136 128 136 139 154 222 226 227 344 92 108
264 280 252 226 246 211 223 229 210 206 182 251 254 186 277 286 236 245 223 189 178 171 167 172 178 179 181 172 163 155 147 151 145 142 145 147 141 165 159 94 62 18 4 75
251 268 202 214 241 218 202 48 31 43 73 272 239 184 265 240 223 223 213 177 169 157 154 160 174 167 157 142 130 129 126 119 138 137 138 148 152 149 133 128 122 348 346 344
323 315 294 227 26 9 77 87 33 3 357 257 224 169 241 250 221 193 184 172 159 145 135 134 125 123 125 122 132 132 126 108 107 129 147 163 168 170 175 186 191 193 148 343
247 290 289 284 173 187 176 142 161 201 226 274 323 202 249 275 168 140 137 137 128 124 131 133 133 132 137 141 143 137 135 129 136 141 164 165 166 172 191 193 194 199 202 213
184 257 286 281 200 144 145 183 179 155 221 265 280 284 324 34 58 85 98 108 122 125 121 127 134 138 144 139 141 148 144 136 145 143 140 140 163 183 196 191 194 198 200 193
167 244 285 305 26 40 160 156 94 127 178 253 275 249 236 245 245 145 123 129 136 130 122 119 132 144 136 137 129 130 133 138 137 146 146 140 167 190 192 161 185 203 193 167
108 162 303 341 228 223 147 120 118 142 169 177 239 262 226 191 182 165 164 153 145 145 142 136 135 133 123 108 110 105 111 122 130 148 145 132 142 139 139 151 175 172 156 150
91 119 255 266 270 225 181 180 152 167 235 183 194 260 293 167 155 143 142 125 122 128 126 115 110 100 102 112 111 115 107 108 167 153 130 150 138 113 106 107 122 119 122 139
97 103 38 339 332 349 331 210 172 156 153 180 192 253 334 79 103 123 135 129 113 92 94 84 84 91 106 123 121 116 110 92 145 133 116 101 102 106 116 112 113 110 109 82
101 122 170 204 237 254 284 297 227 145 179 217 220 230 271 247 130 124 125 132 125 97 98 95 87 76 72 105 141 137 64 75 94 123 117 116 128 125 112 111 98 97 95 86
94 157 216 244 255 247 252 262 244 218 208 203 226 215 230 224 192 176 150 129 109 88 78 88 97 79 47 33 68 134 349 58 103 113 122 150 146 101 93 97 97 103 111 103
82 161 287 298 288 300 279 271 249 236 223 214 221 245 241 211 135 123 132 135 128 120 105 80 65 56 30 247 188 91 37 15 88 101 128 120 107 95 80 80 90 91 98 96
150 151 155 260 286 341 283 263 236 219 212 193 221 233 208 162 161 174 173 162 151 150 148 118 88 63 290 272 167 127 66 50 69 67 59 90 115 107 101 95 85 94 111 99
163 157 164 217 7 244 250 290 203 188 243 206 189 205 188 180 188 177 161 161 161 145 132 109 76 19 347 28 49 61 60 77 79 59 63 65 89 103 95 84 92 104 145 123
165 158 155 151 218 269 283 288 209 183 290 323 161 175 154 122 80 14 7 145 165 163 157 158 146 114 59 46 71 83 62 65 81 96 96 96 112 114 96 83 59 11 79 88
82 117 141 151 193 235 256 289 304 116 249 319 121 155 150 112 127 249 249 128 101 121 126 128 108 72 62 24 73 88 68 60 66 120 119 91 94 101 98 121 345 10 82 266
66 76 151 184 219 254 270 298 43 169 244 270 207 177 167 187 202 199 160 129 103 92 128 129 113 100 89 51 93 89 71 50 10 76 77 64 67 87 94 73 52 49 83 82
180 177 190 172 204 249 262 129 180 222 223 181 175 161 163 173 141 137 137 128 107 84 98 118 115 102 42 71 100 92 68 328 48 72 81 71 59 58 53 60 44 42 70 77
193 195 188 190 214 246 231 207 224 162 163 192 170 148 143 136 150 147 140 135 127 113 117 113 112 97 48 54 97 116 288 34 76 70 71 62 50 40 41 57 61 62 69 82
263 191 156 227 264 271 283 290 79 161 171 170 154 149 145 152 162 157 148 142 128 100 91 93 97 92 51 42 58 76 60 81 90 79 60 58 53 40 36 38 61 81 85 76
234 186 183 247 265 304 307 279 191 112 129 123 129 147 160 152 152 158 156 162 159 121 80 92 107 114 80 54 49 32 57 91 91 79 65 59 55 56 44 36 29 35 20 34
220 197 198 230 227 207 239 244 209 159 176 169 159 152 145 150 161 157 159 163 159 155 126 102 95 96 73 66 58 40 53 91 99 85 62 67 64 59 60 50 26 23 22 18
Height
1510 1516 1522 1520 1517 1518 1520 1524 1526 1523 1517 1520 1523 1523 1521 1520 1520 1521 1523 1523 1524 1526 1527 1528 1529 1530 1530 1531 1531 1532 1532 1533 1533 1534 1534 1535 1535 1535 1535 1535 1535 1535 1535 1535
1517 1520 1514 1512 1513 1516 1519 1524 1525 1521 1516 1519 1523 1523 1519 1518 1518 1519 1520 1521 1523 1524 1525 1526 1527 1528 1529 1529 1530 1531 1531 1532 1532 1533 1533 1534 1534 1534 1535 1535 1534 1534 1534 1534
1519 1517 1511 1512 1514 1517 1519 1523 1523 1523 1518 1518 1522 1527 1522 1519 1518 1518 1518 1519 1520 1521 1522 1524 1525 1526 1527 1528 1529 1529 1530 1531 1531 1532 1532 1533 1533 1533 1533 1533 1533 1533 1533 1533
1516 1512 1511 1513 1515 1516 1522 1515 1516 1519 1525 1531 1526 1540 1527 1520 1518 1517 1517 1517 1518 1519 1520 1522 1523 1524 1525 1526 1527 1528 1528 1529 1530 1531 1531 1531 1531 1531 1531 1532 1532 1532 1532 1532
1517 1513 1513 1515 1514 1512 1516 1512 1514 1517 1523 1530 1529 1537 1532 1521 1521 1518 1516 1516 1516 1517 1519 1520 1521 1522 1523 1524 1525 1526 1527 1528 1529 1529 1529 1530 1530 1530 1530 1530 1530 1531 1531 1531
1513 1511 1511 1511 1510 1509 1510 1514 1517 1523 1528 1538 1530 1535 1535 1524 1519 1516 1515 1515 1515 1516 1517 1518 1520 1521 1522 1523 1524 1525 1525 1526 1527 1527 1528 1528 1528 1528 1528 1528 1528 1528 1528 1528
1518 1513 1509 1509 1512 1511 1514 1527 1539 1541 1546 1541 1527 1532 1531 1516 1513 1512 1512 1513 1514 1514 1515 1517 1518 1519 1520 1521 1522 1523 1524 1524 1525 1526 1526 1527 1527 1527 1526 1526 1526 1526 1526 1526
1527 1526 1512 1509 1512 1516 1517 1525 1541 1547 1547 1540 1528 1531 1524 1513 1511 1511 1511 1511 1512 1513 1514 1515 1517 1517 1518 1520 1521 1521 1522 1523 1524 1524 1525 1525 1525 1525 1525 1524 1524 1524 1524 1524
1527 1525 1511 1508 1507 1510 1517 1523 1522 1535 1536 1540 1535 1527 1520 1513 1513 1512 1512 1512 1513 1513 1514 1515 1516 1517 1517 1518 1519 1520 1521 1521 1522 1522 1523 1523 1523 1523 1523 1522 1522 1522 1522 1522
1519 1524 1514 1509 1507 1508 1511 1516 1527 1533 1541 1545 1537 1532 1529 1520 1516 1514 1513 1513 1513 1514 1514 1514 1515 1516 1516 1517 1518 1518 1519 1520 1520 1520 1521 1520 1521 1521 1521 1521 1520 1520 1520 1520
1516 1524 1520 1515 1515 1516 1515 1517 1523 1532 1534 1542 1543 1536 1517 1516 1515 1514 1513 1513 1513 1513 1513 1514 1515 1515 1515 1516 1516 1517 1517 1518 1518 1519 1519 1518 1518 1519 1518 1518 1518 1518 1518 1518
1517 1524 1528 1520 1511 1509 1511 1514 1521 1533 1534 1535 1540 1535 1512 1512 1512 1513 1513 1513 1513 1513 1513 1513 1513 1514 1514 1515 1515 1515 1516 1516 1516 1516 1517 1517 1517 1517 1517 1516 1516 1516 1516 1517
1516 1525 1534 1529 1523 1514 1513 1513 1516 1522 1530 1535 1538 1532 1513 1512 1513 1513 1513 1513 1513 1513 1513 1513 1513 1513 1514 1514 1514 1514 1514 1514 1515 1515 1515 1515 1515 1515 1515 1514 1514 1514 1514 1514
1514 1523 1530 1533 1527 1520 1518 1514 1513 1520 1530 1531 1527 1523 1516 1514 1513 1513 1513 1513 1513 1512 1512 1512 1512 1512 1512 1513 1513 1513 1513 1513 1513 1513 1513 1513 1513 1513 1513 1513 1512 1512 1512 1512
1514 1522 1520 1519 1516 1515 1516 1514 1513 1516 1519 1524 1520 1518 1516 1513 1512 1512 1512 1512 1512 1512 1512 1511 1511 1511 1511 1511 1511 1511 1511 1511 1512 1512 1512 1511 1511 1511 1511 1511 1510 1510 1510 1510
1516 1521 1519 1519 1515 1515 1516 1513 1512 1513 1514 1515 1515 1516 1512 1511 1511 1511 1512 1511 1511 1511 1511 1510 1510 1510 1510 1509 1509 1510 1509 1510 1510 1510 1510 1510 1509 1509 1509 1509 1509 1509 1508 1508
1518 1521 1524 1526 1518 1516 1520 1513 1511 1512 1510 1511 1515 1513 1510 1510 1510 1510 1511 1510 1510 1510 1510 1509 1509 1509 1509 1508 1508 1508 1508 1508 1508 1508 1508 1508 1507 1507 1507 1507 1507 1507 1507 1507
1516 1520 1525 1526 1523 1527 1518 1508 1507 1508 1508 1507 1507 1507 1507 1507 1507 1508 1508 1508 1508 1508 1508 1508 1507 1507 1507 1507 1507 1507 1507 1506 1506 1506 1505 1506 1505 1505 1505 1504 1504 1504 1505 1504
1509 1516 1524 1528 1528 1523 1514 1508 1507 1509 1510 1507 1507 1506 1506 1506 1507 1508 1508 1508 1507 1507 1507 1507 1506 1506 1506 1505 1505 1505 1504 1504 1504 1504 1503 1504 1504 1503 1503 1502 1502 1502 1502 1502
1509 1512 1521 1526 1526 1526 1514 1506 1504 1507 1512 1507 1506 1506 1506 1505 1510 1509 1507 1507 1507 1506 1506 1506 1506 1505 1504 1504 1503 1503 1502 1502 1502 1502 1502 1502 1502 1501 1501 1500 1500 1500 1500 1500
1516 1518 1522 1525 1525 1519 1509 1505 1504 1514 1512 1506 1505 1504 1505 1504 1505 1505 1505 1505 1505 1505 1504 1504 1503 1502 1502 1502 1501 1500 1500 1500 1500 1500 1500 1500 1500 1499 1499 1498 1498 1498 1497 1497
1515 1519 1521 1523 1525 1520 1505 1504 1507 1507 1503 1503 1503 1503 1504 1503 1503 1503 1503 1503 1502 1502 1502 1502 1501 1500 1500 1500 1499 1498 1498 1498 1499 1499 1498 1498 1498 1497 1497 1496 1495 1495 1495 1494
1511 1511 1512 1514 1513 1505 1502 1502 1502 1502 1502 1502 1502 1502 1503 1502 1502 1502 1501 1501 1501 1501 1500 1500 1499 1499 1498 1498 1498 1497 1497 1497 1497 1497 1496 1496 1495 1495 1494 1493 1493 1492 1492 1492
1507 1505 1507 1508 1505 1502 1501 1501 1501 1501 1501 1501 1501 1502 1501 1501 1500 1500 1500 1500 1500 1499 1499 1498 1497 1497 1496 1496 1496 1496 1496 1495 1495 1495 1494 1494 1493 1493 1492 1491 1491 1491 1490 1489
1505 1504 1506 1506 1503 1501 1500 1500 1500 1500 1500 1500 1500 1500 1500 1499 1498 1498 1498 1498 1498 1498 1497 1497 1496 1495 1495 1495 1495 1495 1494 1494 1493 1492 1492 1492 1492 1491 1490 1490 1490 1489 1489 1489
1501 1502 1503 1502 1499 1499 1499 1499 1499 1498 1498 1498 1498 1498 1498 1497 1497 1497 1496 1497 1497 1497 1496 1496 1495 1495 1494 1494 1494 1493 1493 1492 1492 1491 1491 1490 1490 1490 1489 1488 1488 1487 1487 1487